Location: Roland
(31.1349°N, 85.4372°W)
Time: 22:16:55
(UTC+00:00)

Tiros 1 - Pass Details

Date: 20 April 2021
Orbit: 630 x 664 km, 48.4° (Epoch: 05 May)

Event Time Altitude Azimuth Distance (km) Brightness Sun altitude
Rises 21:25:56 0° 309° (NW) 2,913 11.0 34.8°
Reaches altitude 10° 21:28:15 10° 309° (NW) 2,004 10.4 34.3°
Maximum altitude 21:32:52 81° 223° (SW) 641 7.9 33.3°
Drops below altitude 10° 21:37:29 10° 136° (SE) 2,007 9.4 32.3°
Sets 21:39:48 0° 135° (SE) 2,916 10.2 31.8°
